IV3ONZ Weather Reports


time (UTC)temp
C
wind
direction
speed
KPH
gust
KPH
rain 1hr
cm
rain 24hr
cm
rain mn
cm
humidity
%
barometer
mb
20260507074504 18 151 6.4 20.9 0.00 0.43 0.00 78 1015.9
20260507074216 18 158 6.4 20.9 0.00 0.43 0.00 78 1015.6
20260507073503 18 145 11.3 20.9 0.00 0.48 0.00 79 1015.8
20260507073004 18 144 9.7 17.7 0.00 0.51 0.00 79 1015.7
20260507072504 18 150 6.4 17.7 0.00 0.51 0.00 77 1015.5
20260507072004 18 148 6.4 14.5 0.00 0.51 0.00 77 1015.6
20260507071504 18 157 8.0 16.1 0.00 0.53 0.00 79 1015.4
20260507071003 17 163 8.0 16.1 0.00 0.58 0.00 82 1015.7
20260507070717 17 158 8.0 16.1 0.00 0.61 0.00 82 1015.7
20260507070215 17 165 6.4 12.9 0.00 0.64 0.00 83 1015.5
20260507065504 17 162 6.4 16.1 0.00 0.66 0.00 83 1015.6
20260507065003 17 144 6.4 16.1 0.00 0.69 0.00 81 1015.5
20260507064503 17 165 8.0 16.1 0.00 0.71 0.00 79 1015.4
20260507064003 17 176 8.0 16.1 0.00 0.71 0.00 78 1015.3
20260507063503 17 172 9.7 16.1 0.00 0.76 0.00 78 1015.3
20260507063004 17 170 9.7 17.7 0.00 0.76 0.00 79 1015.3
20260507062503 17 170 9.7 24.1 0.00 0.79 0.00 80 1015.1
20260507062003 17 170 9.7 24.1 0.00 0.84 0.00 81 1015.3
20260507061717 17 168 9.7 24.1 0.00 0.84 0.00 82 1015.0
20260507061003 17 147 9.7 17.7 0.00 0.86 0.00 82 1015.1
20260507060504 17 147 9.7 17.7 0.00 0.86 0.00 83 1015.0
20260507060005 17 146 8.0 14.5 0.00 0.86 0.00 84 1015.3
20260507055503 17 139 8.0 12.9 0.00 0.86 0.00 85 1015.1
20260507055003 16 140 6.4 12.9 0.00 0.89 0.00 85 1015.2
20260507054714 16 136 4.8 11.3 0.00 0.89 0.00 86 1015.1
20260507054003 16 135 4.8 6.4 0.00 0.89 0.00 88 1015.0
20260507053503 16 132 4.8 9.7 0.00 0.89 0.00 87 1014.7
20260507053004 16 127 4.8 9.7 0.00 0.97 0.00 88 1014.9
20260507052503 16 131 4.8 9.7 0.00 1.09 0.00 88 1014.9
20260507052003 16 134 4.8 6.4 0.00 1.22 0.00 87 1014.8
20260507051504 16 140 4.8 9.7 0.00 1.52 0.00 88 1014.8
20260507051003 16 137 4.8 9.7 0.00 1.63 0.00 88 1014.6
20260507050503 16 130 4.8 9.7 0.00 1.63 0.00 88 1014.6
20260507050216 16 133 4.8 9.7 0.00 1.63 0.00 88 1014.4
20260507045503 16 129 4.8 9.7 0.00 1.63 0.00 88 1014.6
20260507045004 16 119 6.4 11.3 0.00 1.63 0.00 88 1014.5
20260507044504 16 110 6.4 11.3 0.00 1.63 0.00 89 1014.5
20260507044213 16 108 4.8 11.3 0.00 1.63 0.00 89 1014.5
20260507043503 15 123 4.8 6.4 0.00 1.63 0.00 89 1014.4
20260507043003 15 122 4.8 6.4 0.00 1.63 0.00 90 1014.5
20260507042717 15 117 3.2 6.4 0.00 1.63 0.00 90 1014.5
20260507042003 15 113 1.6 4.8 0.00 1.63 0.00 90 1014.4
20260507041503 15 118 1.6 3.2 0.00 1.63 0.00 90 1014.3
20260507041004 15 125 1.6 3.2 0.00 1.63 0.00 90 1014.3
20260507040503 15 130 1.6 3.2 0.00 1.63 0.00 91 1014.3
20260507040004 15 128 3.2 4.8 0.00 1.63 0.00 91 1014.2
20260507035503 15 123 3.2 4.8 0.00 1.63 0.00 91 1014.1
20260507035213 15 119 3.2 4.8 0.00 1.63 0.00 91 1014.4
20260507034503 15 121 3.2 4.8 0.00 1.63 0.00 91 1014.0
20260507034003 15 122 3.2 4.8 0.00 1.63 0.00 91 1014.3
20260507033716 15 117 3.2 6.4 0.00 1.63 0.00 91 1014.3
20260507033003 15 114 4.8 9.7 0.00 1.63 0.00 91 1014.3
20260507032717 15 116 4.8 9.7 0.00 1.63 0.00 91 1014.1
20260507032003 15 124 4.8 9.7 0.00 1.63 0.00 91 1014.1
20260507031503 15 127 4.8 9.7 0.00 1.63 0.00 91 1014.2
20260507031216 15 128 4.8 9.7 0.00 1.63 0.00 91 1014.2
20260507030714 15 129 3.2 6.4 0.00 1.63 0.00 91 1014.0
20260507030003 15 132 3.2 4.8 0.00 1.63 0.00 91 1014.2
20260507025503 15 139 3.2 6.4 0.00 1.63 0.00 91 1014.0
20260507025003 15 142 3.2 6.4 0.00 1.63 0.00 91 1014.0
20260507024503 15 136 4.8 6.4 0.00 1.63 0.00 90 1014.0
20260507024214 15 136 4.8 6.4 0.00 1.63 0.00 90 1014.2
20260507023503 16 145 4.8 9.7 0.00 1.63 0.00 89 1014.2
20260507023003 16 147 4.8 11.3 0.00 1.63 0.00 89 1014.2
20260507022503 16 150 6.4 11.3 0.00 1.63 0.00 89 1014.1
20260507022003 16 150 6.4 11.3 0.00 1.63 0.00 88 1014.0
20260507021714 16 149 4.8 11.3 0.00 1.63 0.00 88 1014.2
20260507021003 16 152 4.8 11.3 0.00 1.63 0.00 88 1014.3
20260507020715 16 158 4.8 11.3 0.00 1.63 0.00 88 1014.2
20260507020004 16 158 4.8 11.3 0.00 1.63 0.00 89 1014.4
20260507015504 16 154 4.8 11.3 0.00 1.63 0.00 89 1014.3
20260507015004 16 163 4.8 11.3 0.00 1.63 0.00 89 1014.4
20260507014503 16 167 6.4 12.9 0.00 1.63 0.00 89 1014.2
20260507014215 16 167 4.8 12.9 0.00 1.63 0.00 89 1014.1
20260507013503 16 158 6.4 14.5 0.00 1.63 0.00 88 1014.1
20260507013004 16 157 6.4 14.5 0.00 1.63 0.00 88 1014.1
20260507012503 16 165 4.8 11.3 0.00 1.63 0.00 87 1014.1
20260507012003 16 166 6.4 11.3 0.00 1.63 0.00 87 1014.0
20260507011504 16 161 6.4 11.3 0.00 1.63 0.00 87 1014.1
20260507010503 16 156 6.4 14.5 0.00 1.63 0.00 87 1014.1
20260507010004 16 153 6.4 14.5 0.00 1.63 0.00 87 1014.3
20260507005503 16 151 6.4 12.9 0.00 1.63 0.00 86 1014.1
20260507005003 16 151 6.4 12.9 0.00 1.63 0.00 86 1014.1
20260507004717 16 156 6.4 14.5 0.00 1.63 0.00 86 1014.1
20260507004003 16 158 6.4 14.5 0.00 1.63 0.00 85 1014.3
20260507003504 16 160 6.4 12.9 0.00 1.63 0.00 86 1014.4
20260507003004 16 168 6.4 12.9 0.00 1.63 0.00 86 1014.3
20260507002504 16 165 4.8 12.9 0.00 1.63 0.00 86 1014.2
20260507002003 16 151 6.4 14.5 0.00 1.63 0.00 86 1014.2
20260507001503 16 151 6.4 14.5 0.00 1.63 0.00 86 1014.3
20260507001003 16 162 6.4 14.5 0.00 1.63 0.00 86 1014.1
20260507000505 16 149 8.0 20.9 0.00 1.63 0.00 86 1014.1
20260507000008 16 143 9.7 20.9 0.00 1.63 0.00 85 1014.3
20260506235503 16 146 8.0 16.1 0.00 1.63 1.63 86 1014.2
20260506235003 16 146 8.0 16.1 0.00 1.63 1.63 86 1014.3
20260506234713 16 146 6.4 16.1 0.00 1.63 1.63 86 1014.3
20260506234003 15 145 6.4 11.3 0.00 1.63 1.63 87 1014.5
20260506233503 15 136 6.4 11.3 0.00 1.63 1.63 87 1014.4
20260506233003 15 126 6.4 11.3 0.00 1.63 1.63 87 1014.3
20260506232503 15 133 6.4 11.3 0.00 1.63 1.63 87 1014.5
20260506232003 15 129 4.8 9.7 0.00 1.63 1.63 87 1014.5
20260506231503 15 124 4.8 9.7 0.00 1.63 1.63 87 1014.4
20260506231003 15 134 4.8 9.7 0.00 1.63 1.63 87 1014.6
20260506230503 15 134 4.8 9.7 0.00 1.63 1.63 87 1014.7
20260506230006 15 135 4.8 11.3 0.00 1.63 1.63 87 1014.6
20260506225504 15 135 4.8 11.3 0.00 1.63 1.63 87 1014.7
20260506225003 15 130 6.4 12.9 0.00 1.63 1.63 87 1014.6
20260506224503 15 132 6.4 12.9 0.00 1.63 1.63 87 1014.5
20260506224003 15 135 6.4 11.3 0.00 1.63 1.63 87 1014.7
20260506223503 15 133 6.4 11.3 0.00 1.63 1.63 87 1014.8
20260506223004 15 129 4.8 9.7 0.00 1.63 1.63 87 1014.4
20260506222715 15 130 4.8 9.7 0.00 1.63 1.63 87 1014.7
20260506222003 14 127 4.8 6.4 0.00 1.63 1.63 87 1014.5
20260506221504 15 125 4.8 9.7 0.00 1.63 1.63 87 1014.5
20260506221003 15 126 4.8 9.7 0.00 1.63 1.63 86 1014.7
20260506220503 15 137 3.2 6.4 0.00 1.63 1.63 86 1014.6
20260506220004 15 131 4.8 11.3 0.00 1.63 1.63 86 1014.4
20260506215503 15 119 6.4 11.3 0.00 1.63 1.63 86 1014.3
20260506215216 15 118 6.4 11.3 0.00 1.63 1.63 86 1014.5
20260506214503 15 128 4.8 9.7 0.00 1.63 1.63 86 1014.4
20260506214003 15 140 4.8 11.3 0.00 1.63 1.63 85 1014.5
20260506213504 15 148 6.4 12.9 0.00 1.63 1.63 83 1014.3
20260506213213 15 155 8.0 12.9 0.00 1.63 1.63 83 1014.4
20260506212503 15 159 6.4 12.9 0.00 1.63 1.63 83 1014.3
20260506212003 15 152 6.4 12.9 0.00 1.63 1.63 83 1014.3
20260506211506 15 146 6.4 12.9 0.00 1.63 1.63 83 1014.2
20260506211004 15 142 8.0 12.9 0.00 1.63 1.63 83 1014.2
20260506210503 15 149 8.0 17.7 0.00 1.63 1.63 83 1014.4
20260506210004 16 156 8.0 17.7 0.00 1.63 1.63 83 1014.5
20260506205503 16 174 8.0 17.7 0.00 1.63 1.63 83 1014.4
20260506205004 16 178 8.0 16.1 0.00 1.63 1.63 81 1014.4
20260506204503 16 169 8.0 20.9 0.00 1.63 1.63 81 1014.6
20260506204004 16 157 8.0 20.9 0.00 1.63 1.63 81 1014.4
20260506203716 16 157 8.0 20.9 0.00 1.63 1.63 81 1014.5
20260506203003 16 165 6.4 12.9 0.00 1.63 1.63 81 1014.4
20260506202503 16 166 6.4 16.1 0.00 1.63 1.63 81 1014.3
20260506202215 16 161 8.0 16.1 0.00 1.63 1.63 81 1014.2
20260506201504 15 140 6.4 14.5 0.00 1.63 1.63 83 1014.2
20260506201003 15 131 4.8 11.3 0.00 1.63 1.63 89 1014.3
20260506200505 15 143 6.4 22.5 0.00 1.63 1.63 90 1014.4
20260506200005 16 154 8.0 22.5 0.00 1.63 1.63 87 1014.3
20260506195503 15 152 6.4 22.5 0.00 1.65 1.63 86 1014.3
20260506195003 16 142 4.8 11.3 0.00 1.65 1.63 88 1014.2
20260506194504 16 139 6.4 11.3 0.00 1.68 1.63 88 1014.0
20260506194003 16 141 6.4 16.1 0.00 1.68 1.63 88 1014.2
20260506193503 16 142 8.0 16.1 0.00 1.68 1.63 88 1014.0
20260506193003 16 146 6.4 16.1 0.00 1.68 1.63 87 1014.0
20260506192717 16 159 6.4 16.1 0.00 1.68 1.63 88 1013.9
20260506192004 16 169 9.7 24.1 0.00 1.68 1.63 87 1014.0
20260506191504 16 166 9.7 24.1 0.00 1.68 1.63 87 1013.9
20260506191003 16 166 8.0 20.9 0.00 1.68 1.63 87 1013.7
20260506190503 16 162 8.0 16.1 0.00 1.68 1.63 87 1013.6
20260506190005 16 161 8.0 16.1 0.00 1.68 1.63 87 1013.5
20260506185504 16 161 8.0 16.1 0.00 1.68 1.63 87 1013.1
20260506185003 16 161 8.0 16.1 0.00 1.68 1.63 87 1013.1
20260506184503 16 166 8.0 16.1 0.00 1.68 1.63 87 1012.9
20260506184003 16 168 6.4 14.5 0.00 1.68 1.63 87 1013.2
20260506183503 16 155 6.4 12.9 0.00 1.68 1.63 87 1013.2
20260506183004 16 152 6.4 12.9 0.00 1.68 1.63 87 1013.0
20260506182503 16 161 6.4 12.9 0.00 1.68 1.63 87 1013.2
20260506182003 17 169 6.4 12.9 0.00 1.68 1.63 87 1012.9
20260506181503 17 170 6.4 14.5 0.00 1.68 1.63 87 1013.0
20260506181004 16 167 6.4 14.5 0.00 1.68 1.63 88 1013.2
20260506180504 16 162 4.8 11.3 0.00 1.68 1.63 90 1013.1
20260506180005 16 156 4.8 9.7 0.00 1.68 1.63 91 1013.2
20260506175504 16 157 4.8 9.7 0.00 1.68 1.63 91 1012.9
20260506175003 16 156 3.2 6.4 0.00 1.68 1.63 91 1013.0
20260506174503 16 152 3.2 6.4 0.00 1.68 1.63 92 1012.8
20260506174003 16 151 3.2 6.4 0.00 1.68 1.63 92 1012.9
20260506173713 16 153 3.2 6.4 0.03 1.68 1.63 92 1012.9
20260506173004 16 161 3.2 9.7 0.15 1.68 1.63 92 1012.8
20260506172503 16 163 3.2 9.7 0.15 1.68 1.63 92 1012.7
20260506172004 16 176 4.8 16.1 0.15 1.68 1.63 92 1012.7
20260506171714 16 186 6.4 16.1 0.15 1.68 1.63 92 1012.8
20260506171003 16 198 9.7 20.9 0.15 1.68 1.63 92 1012.6
20260506170503 16 201 9.7 20.9 0.15 1.68 1.63 92 1012.6
20260506170006 16 208 8.0 20.9 0.15 1.68 1.63 91 1012.8
20260506165504 16 212 6.4 17.7 0.15 1.68 1.63 91 1012.6
20260506165004 16 207 6.4 17.7 0.15 1.68 1.63 91 1012.8
20260506164503 17 205 6.4 17.7 0.15 1.68 1.63 91 1012.4
20260506164003 17 214 9.7 17.7 0.15 1.68 1.63 90 1012.5
20260506163503 17 179 11.3 17.7 0.10 1.63 1.57 87 1012.6
20260506163216 17 154 9.7 17.7 0.03 1.55 1.55 85 1012.2
20260506162503 18 150 6.4 12.9 0.00 1.52 1.50 82 1012.4
20260506162003 18 140 8.0 14.5 0.00 1.52 1.50 82 1012.5
20260506161715 18 138 8.0 14.5 0.00 1.52 1.50 82 1012.5
20260506161003 18 142 8.0 14.5 0.00 1.52 1.50 82 1012.4
20260506160503 18 146 8.0 14.5 0.00 1.52 1.50 82 1012.5
20260506160214 18 144 8.0 14.5 0.00 1.52 1.50 82 1012.3
20260506155717 18 144 6.4 14.5 0.00 1.52 1.50 82 1012.6
20260506155004 18 141 6.4 12.9 0.00 1.52 1.50 82 1012.6
20260506154503 18 147 6.4 14.5 0.00 1.52 1.50 82 1012.8
20260506154003 18 156 8.0 16.1 0.00 1.52 1.50 82 1012.8
20260506153504 18 148 8.0 16.1 0.00 1.52 1.50 82 1013.0
20260506153003 18 144 8.0 17.7 0.00 1.52 1.50 82 1013.0
20260506152503 18 137 9.7 17.7 0.00 1.52 1.50 82 1012.8
20260506152213 18 135 9.7 17.7 0.00 1.52 1.50 82 1012.8
20260506151503 18 143 9.7 16.1 0.00 1.52 1.50 82 1013.0
20260506151214 18 146 8.0 16.1 0.00 1.52 1.50 82 1013.1
20260506150503 18 150 6.4 12.9 0.00 1.52 1.50 83 1013.2
20260506150004 17 156 8.0 16.1 0.00 1.52 1.50 83 1013.3
20260506145503 17 157 8.0 16.1 0.00 1.52 1.50 83 1013.2
20260506145003 18 144 8.0 16.1 0.00 1.52 1.50 83 1013.5
20260506144503 18 134 8.0 12.9 0.00 1.55 1.50 84 1013.4
20260506144003 18 125 8.0 12.9 0.00 1.57 1.50 83 1013.4
20260506143504 18 119 8.0 14.5 0.00 1.57 1.50 84 1013.4
20260506143003 17 129 6.4 14.5 0.00 1.60 1.50 84 1013.5
20260506142504 18 145 6.4 11.3 0.00 1.60 1.50 85 1013.4
20260506142004 17 143 6.4 11.3 0.00 1.63 1.50 86 1013.5
20260506141503 17 131 6.4 11.3 0.00 1.63 1.50 87 1013.5
20260506141004 17 126 4.8 11.3 0.00 1.65 1.50 87 1013.7
20260506140717 17 129 4.8 9.7 0.00 1.65 1.50 88 1013.4
20260506140215 17 135 4.8 11.3 0.00 1.68 1.50 88 1013.5
20260506135503 16 137 4.8 11.3 0.00 1.70 1.50 88 1013.8
20260506135004 16 133 3.2 6.4 0.00 1.70 1.50 88 1013.7
20260506134504 16 128 3.2 6.4 0.00 1.70 1.50 88 1013.6
20260506134003 16 124 3.2 4.8 0.00 1.70 1.50 88 1013.7
20260506133503 16 110 3.2 6.4 0.00 1.70 1.50 89 1013.8
20260506133003 16 108 3.2 6.4 0.00 1.70 1.50 88 1014.0
20260506132503 16 109 1.6 6.4 0.00 1.75 1.50 89 1014.1
20260506132003 16 114 3.2 6.4 0.00 1.75 1.50 89 1013.9
20260506131503 16 124 3.2 6.4 0.00 1.75 1.50 89 1014.2
20260506131215 16 134 3.2 9.7 0.00 1.75 1.50 89 1014.2
20260506130503 16 145 4.8 11.3 0.00 1.75 1.50 88 1014.2
20260506130216 16 144 4.8 11.3 0.00 1.75 1.50 88 1014.0
20260506125503 17 152 6.4 14.5 0.00 1.75 1.50 88 1014.3
20260506125003 16 164 8.0 14.5 0.00 1.75 1.50 87 1014.4
20260506124503 16 166 6.4 14.5 0.00 1.75 1.50 88 1014.3
20260506124004 17 157 6.4 14.5 0.00 1.75 1.50 88 1014.4
20260506123503 16 158 8.0 14.5 0.03 1.75 1.50 87 1014.3
20260506123003 16 163 8.0 16.1 0.10 1.75 1.50 87 1014.2
20260506122717 16 165 8.0 22.5 0.10 1.75 1.50 88 1014.4
20260506122003 16 168 9.7 22.5 0.10 1.75 1.50 89 1014.2
20260506121503 16 158 8.0 17.7 0.10 1.75 1.50 91 1014.2
20260506121003 16 150 6.4 17.7 0.10 1.75 1.50 92 1014.3
20260506120504 15 154 4.8 11.3 0.10 1.75 1.50 92 1014.4
20260506120005 15 149 4.8 9.7 0.10 1.75 1.50 92 1014.3
20260506115504 15 149 4.8 11.3 0.10 1.75 1.50 92 1014.3
20260506115003 15 148 4.8 11.3 0.10 1.75 1.50 92 1014.4
20260506114503 15 142 4.8 11.3 0.10 1.75 1.50 92 1014.2
20260506114005 15 141 4.8 11.3 0.10 1.75 1.50 91 1014.3
20260506113506 15 140 6.4 14.5 0.10 1.73 1.47 91 1014.4
20260506113003 15 138 8.0 14.5 0.03 1.65 1.40 90 1014.3
20260506112503 15 138 8.0 14.5 0.03 1.65 1.40 90 1014.5
20260506112003 15 142 8.0 14.5 0.03 1.68 1.40 90 1014.4
20260506111503 15 147 6.4 11.3 0.03 1.68 1.40 91 1014.4
20260506111004 15 146 4.8 9.7 0.03 1.70 1.40 91 1014.5
20260506110503 15 151 4.8 11.3 0.03 1.70 1.40 92 1014.4
20260506110004 15 146 4.8 12.9 0.03 1.70 1.40 92 1014.4
20260506105503 15 143 4.8 12.9 0.03 1.70 1.40 92 1014.5
20260506105004 15 152 6.4 12.9 0.03 1.70 1.40 92 1014.6
20260506104503 15 147 6.4 12.9 0.03 1.70 1.40 92 1014.8
20260506104003 15 138 6.4 12.9 0.03 1.70 1.40 92 1014.7
20260506103504 15 140 6.4 14.5 0.00 1.70 1.37 92 1014.4
20260506103003 15 144 8.0 17.7 0.00 1.70 1.37 92 1014.6
20260506102503 15 141 9.7 17.7 0.03 1.73 1.37 93 1014.9
20260506102003 15 135 9.7 14.5 0.03 1.73 1.37 93 1014.7
20260506101503 15 133 8.0 16.1 0.03 1.73 1.37 93 1014.6
20260506101217 15 137 9.7 17.7 0.03 1.73 1.37 93 1014.8
20260506100503 15 136 11.3 17.7 0.03 1.73 1.37 92 1014.8
20260506100005 15 132 11.3 17.7 0.03 1.73 1.37 92 1014.8
20260506095503 15 131 9.7 17.7 0.03 1.73 1.37 92 1014.8
20260506095003 15 139 8.0 16.1 0.03 1.73 1.37 92 1014.7
20260506094503 15 139 8.0 16.1 0.03 1.73 1.37 92 1014.9
20260506094003 15 135 8.0 16.1 0.03 1.73 1.37 93 1014.9
20260506093503 15 136 8.0 16.1 0.03 1.73 1.37 93 1015.0
20260506093216 15 138 9.7 17.7 0.03 1.73 1.37 93 1015.1
20260506092503 15 136 11.3 25.7 0.03 1.70 1.35 92 1014.9
20260506092004 15 133 11.3 25.7 0.05 1.70 1.35 92 1015.0
20260506091503 15 139 11.3 22.5 0.05 1.70 1.35 92 1014.9
20260506091003 15 143 11.3 22.5 0.08 1.70 1.35 93 1014.8
20260506090503 15 137 11.3 22.5 0.10 1.70 1.35 93 1015.0
20260506090214 15 137 9.7 22.5 0.10 1.70 1.35 93 1014.8
20260506085503 15 146 9.7 20.9 0.10 1.70 1.35 94 1014.9
20260506085214 15 145 9.7 20.9 0.15 1.70 1.35 94 1014.8
20260506084503 15 137 9.7 22.5 0.15 1.70 1.35 95 1014.9
20260506084003 15 137 9.7 22.5 0.18 1.70 1.35 95 1014.7
20260506083713 15 135 9.7 16.1 0.20 1.70 1.35 95 1014.5
20260506083004 15 139 9.7 17.7 0.20 1.68 1.35 95 1014.8
20260506082503 15 139 11.3 22.5 0.20 1.68 1.35 95 1014.8
20260506082003 15 138 11.3 22.5 0.20 1.65 1.32 95 1014.7
20260506081503 15 137 9.7 20.9 0.23 1.65 1.32 95 1014.4
20260506081003 15 143 8.0 20.9 0.25 1.63 1.30 96 1014.6
20260506080716 15 144 9.7 20.9 0.28 1.63 1.30 96 1014.7
20260506080214 15 145 9.7 20.9 0.28 1.60 1.27 95 1014.4